Time,TemperatureF,DewpointF,PressureIn,WindDirection,WindDirectionDegrees,WindSpeedMPH,WindSpeedGustMPH,Humidity,HourlyPrecipIn,Conditions,Clouds,dailyrainin,SoftwareType,DateUTC
2013-08-05 00:06:00,74.4,73.0,30.02,WNW,302,0.0,0.0,96,0.00,,,0.00,weatherlink.com 1.10,2013-08-05 04:06:00,
2013-08-05 00:21:00,74.3,73.0,30.02,WNW,303,0.0,0.0,96,0.00,,,0.00,weatherlink.com 1.10,2013-08-05 04:21:00,
2013-08-05 00:36:00,74.1,73.0,30.02,WNW,303,0.0,0.0,97,0.00,,,0.00,weatherlink.com 1.10,2013-08-05 04:36:00,
2013-08-05 00:52:00,73.9,73.0,30.02,WNW,303,0.0,0.0,97,0.00,,,0.00,weatherlink.com 1.10,2013-08-05 04:52:00,
2013-08-05 01:06:00,73.8,73.0,30.02,WNW,303,0.0,0.0,97,0.00,,,0.00,weatherlink.com 1.10,2013-08-05 05:06:00,
2013-08-05 01:21:00,73.6,73.0,30.02,WNW,303,0.0,0.0,97,0.00,,,0.00,weatherlink.com 1.10,2013-08-05 05:21:00,
2013-08-05 01:51:00,73.1,72.0,30.01,WNW,303,0.0,0.0,97,0.00,,,0.00,weatherlink.com 1.10,2013-08-05 05:51:00,
2013-08-05 02:21:00,72.7,72.0,30.00,WNW,303,0.0,0.0,97,0.00,,,0.00,weatherlink.com 1.10,2013-08-05 06:21:00,
2013-08-05 02:36:00,72.5,72.0,30.00,WNW,303,0.0,0.0,98,0.00,,,0.00,weatherlink.com 1.10,2013-08-05 06:36:00,
2013-08-05 02:52:00,72.3,72.0,29.99,WNW,303,0.0,0.0,98,0.00,,,0.00,weatherlink.com 1.10,2013-08-05 06:52:00,
2013-08-05 03:07:00,72.0,71.0,29.99,WNW,303,0.0,0.0,98,0.00,,,0.00,weatherlink.com 1.10,2013-08-05 07:07:00,
2013-08-05 03:21:00,71.9,71.0,29.99,WNW,303,0.0,0.0,98,0.00,,,0.00,weatherlink.com 1.10,2013-08-05 07:21:00,
2013-08-05 03:37:00,71.9,71.0,29.99,WNW,303,0.0,0.0,98,0.00,,,0.00,weatherlink.com 1.10,2013-08-05 07:37:00,
2013-08-05 03:52:00,71.6,71.0,29.99,WNW,303,0.0,0.0,98,0.00,,,0.00,weatherlink.com 1.10,2013-08-05 07:52:00,
2013-08-05 04:07:00,71.4,71.0,29.99,WNW,303,0.0,0.0,98,0.00,,,0.00,weatherlink.com 1.10,2013-08-05 08:07:00,
2013-08-05 04:22:00,71.2,71.0,29.99,WNW,303,0.0,0.0,98,0.00,,,0.00,weatherlink.com 1.10,2013-08-05 08:22:00,
2013-08-05 04:37:00,70.9,70.0,29.99,WNW,303,0.0,0.0,98,0.00,,,0.00,weatherlink.com 1.10,2013-08-05 08:37:00,
2013-08-05 05:06:00,70.6,70.0,29.99,WNW,303,0.0,0.0,98,0.00,,,0.00,weatherlink.com 1.10,2013-08-05 09:06:00,
2013-08-05 05:22:00,70.5,70.0,30.00,WNW,303,0.0,0.0,99,0.00,,,0.00,weatherlink.com 1.10,2013-08-05 09:22:00,
2013-08-05 05:37:00,70.4,70.0,30.00,WNW,303,0.0,0.0,99,0.00,,,0.00,weatherlink.com 1.10,2013-08-05 09:37:00,
2013-08-05 06:53:00,70.3,70.0,30.02,WNW,303,0.0,0.0,99,0.00,,,0.00,weatherlink.com 1.10,2013-08-05 10:53:00,
2013-08-05 07:07:00,70.5,70.0,30.03,WNW,303,0.0,0.0,99,0.00,,,0.00,weatherlink.com 1.10,2013-08-05 11:07:00,
2013-08-05 07:21:00,70.7,70.0,30.04,WNW,303,0.0,0.0,99,0.00,,,0.00,weatherlink.com 1.10,2013-08-05 11:21:00,
2013-08-05 07:37:00,71.2,71.0,30.04,WNW,303,0.0,0.0,98,0.00,,,0.00,weatherlink.com 1.10,2013-08-05 11:37:00,
2013-08-05 07:52:00,71.8,71.0,30.04,WNW,303,0.0,0.0,97,0.00,,,0.00,weatherlink.com 1.10,2013-08-05 11:52:00,
2013-08-05 08:07:00,72.3,71.0,30.04,WSW,256,0.0,1.0,96,0.00,,,0.00,weatherlink.com 1.10,2013-08-05 12:07:00,
2013-08-05 08:22:00,73.3,72.0,30.05,WSW,255,0.0,1.0,95,0.00,,,0.00,weatherlink.com 1.10,2013-08-05 12:22:00,
2013-08-05 08:37:00,76.6,74.0,30.05,West,269,0.0,1.0,91,0.00,,,0.00,weatherlink.com 1.10,2013-08-05 12:37:00,
2013-08-05 08:52:00,80.1,75.0,30.05,SE,130,0.0,1.0,83,0.00,,,0.00,weatherlink.com 1.10,2013-08-05 12:52:00,
2013-08-05 09:07:00,80.3,73.0,30.05,ESE,108,0.0,3.0,79,0.00,,,0.00,weatherlink.com 1.10,2013-08-05 13:07:00,
2013-08-05 09:23:00,81.6,73.0,30.05,SSE,150,1.0,4.0,74,0.00,,,0.00,weatherlink.com 1.10,2013-08-05 13:23:00,
2013-08-05 09:38:00,82.8,72.0,30.05,ESE,120,2.0,5.0,69,0.00,,,0.00,weatherlink.com 1.10,2013-08-05 13:38:00,
2013-08-05 09:53:00,83.3,71.0,30.06,SE,126,2.0,5.0,67,0.00,,,0.00,weatherlink.com 1.10,2013-08-05 13:53:00,
2013-08-05 10:08:00,83.6,72.0,30.06,ESE,120,1.0,4.0,67,0.00,,,0.00,weatherlink.com 1.10,2013-08-05 14:08:00,
2013-08-05 10:23:00,84.0,71.0,30.07,SE,127,2.0,6.0,64,0.00,,,0.00,weatherlink.com 1.10,2013-08-05 14:23:00,
2013-08-05 10:53:00,85.0,72.0,30.07,SE,144,1.0,5.0,65,0.00,,,0.00,weatherlink.com 1.10,2013-08-05 14:53:00,
2013-08-05 11:08:00,84.7,69.0,30.07,ESE,116,4.0,4.0,60,0.00,,,0.00,weatherlink.com 1.10,2013-08-05 15:08:00,
2013-08-05 11:23:00,83.3,69.0,30.07,ESE,119,2.0,4.0,62,0.00,,,0.00,weatherlink.com 1.10,2013-08-05 15:23:00,
2013-08-05 11:38:00,84.7,71.0,30.07,ESE,114,3.0,9.0,63,0.00,,,0.00,weatherlink.com 1.10,2013-08-05 15:38:00,
2013-08-05 11:53:00,86.5,71.0,30.07,SE,146,2.0,4.0,60,0.00,,,0.00,weatherlink.com 1.10,2013-08-05 15:53:00,
2013-08-05 12:09:00,86.4,70.0,30.07,SE,134,2.0,5.0,58,0.00,,,0.00,weatherlink.com 1.10,2013-08-05 16:09:00,
2013-08-05 12:38:00,86.6,67.0,30.07,NW,319,1.0,7.0,52,0.00,,,0.00,weatherlink.com 1.10,2013-08-05 16:38:00,
2013-08-05 13:08:00,86.7,70.0,30.06,ENE,63,2.0,5.0,58,0.00,,,0.00,weatherlink.com 1.10,2013-08-05 17:08:00,
2013-08-05 13:24:00,84.8,69.0,30.06,SE,127,0.0,4.0,59,0.00,,,0.00,weatherlink.com 1.10,2013-08-05 17:24:00,
2013-08-05 13:39:00,83.8,70.0,30.06,SE,125,2.0,5.0,63,0.00,,,0.00,weatherlink.com 1.10,2013-08-05 17:39:00,
2013-08-05 13:54:00,84.7,68.0,30.06,WNW,293,2.0,4.0,58,0.00,,,0.00,weatherlink.com 1.10,2013-08-05 17:54:00,
2013-08-05 14:09:00,85.3,68.0,30.06,SE,145,0.0,4.0,57,0.00,,,0.00,weatherlink.com 1.10,2013-08-05 18:09:00,
2013-08-05 14:39:00,85.5,68.0,30.05,SE,143,1.0,3.0,57,0.00,,,0.00,weatherlink.com 1.10,2013-08-05 18:39:00,
2013-08-05 14:54:00,86.5,70.0,30.05,SE,141,0.0,4.0,58,0.00,,,0.00,weatherlink.com 1.10,2013-08-05 18:54:00,
2013-08-05 15:09:00,86.7,67.0,30.05,East,96,3.0,4.0,52,0.00,,,0.00,weatherlink.com 1.10,2013-08-05 19:09:00,
2013-08-05 15:24:00,85.9,67.0,30.04,ESE,114,2.0,4.0,53,0.00,,,0.00,weatherlink.com 1.10,2013-08-05 19:24:00,
2013-08-05 15:39:00,85.9,66.0,30.04,SSW,202,1.0,5.0,52,0.00,,,0.00,weatherlink.com 1.10,2013-08-05 19:39:00,
2013-08-05 16:09:00,85.0,67.0,30.04,SE,146,2.0,4.0,55,0.00,,,0.00,weatherlink.com 1.10,2013-08-05 20:09:00,
2013-08-05 16:39:00,84.0,67.0,30.03,ESE,112,1.0,3.0,57,0.00,,,0.00,weatherlink.com 1.10,2013-08-05 20:39:00,
2013-08-05 16:54:00,83.8,67.0,30.03,ESE,118,2.0,4.0,58,0.00,,,0.00,weatherlink.com 1.10,2013-08-05 20:54:00,
2013-08-05 17:24:00,83.1,66.0,30.03,SE,140,1.0,3.0,57,0.00,,,0.00,weatherlink.com 1.10,2013-08-05 21:24:00,
2013-08-05 17:39:00,82.9,66.0,30.02,South,174,0.0,2.0,57,0.00,,,0.00,weatherlink.com 1.10,2013-08-05 21:39:00,
2013-08-05 17:54:00,82.9,66.0,30.02,South,177,1.0,2.0,56,0.00,,,0.00,weatherlink.com 1.10,2013-08-05 21:54:00,
2013-08-05 18:09:00,83.4,66.0,30.02,SSE,158,1.0,2.0,55,0.00,,,0.00,weatherlink.com 1.10,2013-08-05 22:09:00,
2013-08-05 18:24:00,83.4,65.0,30.02,ESE,107,0.0,2.0,54,0.00,,,0.00,weatherlink.com 1.10,2013-08-05 22:24:00,
2013-08-05 18:39:00,83.5,65.0,30.02,SSE,147,0.0,2.0,54,0.00,,,0.00,weatherlink.com 1.10,2013-08-05 22:39:00,
2013-08-05 18:54:00,83.1,65.0,30.02,SSE,148,0.0,2.0,54,0.00,,,0.00,weatherlink.com 1.10,2013-08-05 22:54:00,
2013-08-05 19:24:00,81.0,65.0,30.02,South,188,0.0,1.0,59,0.00,,,0.00,weatherlink.com 1.10,2013-08-05 23:24:00,
2013-08-05 19:39:00,79.7,67.0,30.02,South,186,0.0,0.0,65,0.00,,,0.00,weatherlink.com 1.10,2013-08-05 23:39:00,
2013-08-05 19:54:00,77.9,67.0,30.03,South,186,0.0,0.0,70,0.00,,,0.00,weatherlink.com 1.10,2013-08-05 23:54:00,
2013-08-05 20:09:00,76.3,67.0,30.03,South,186,0.0,0.0,74,0.00,,,0.00,weatherlink.com 1.10,2013-08-06 00:09:00,
2013-08-05 20:24:00,74.8,67.0,30.04,South,186,0.0,0.0,77,0.00,,,0.00,weatherlink.com 1.10,2013-08-06 00:24:00,
2013-08-05 20:54:00,72.8,68.0,30.04,South,186,0.0,0.0,86,0.00,,,0.00,weatherlink.com 1.10,2013-08-06 00:54:00,
2013-08-05 21:09:00,72.1,68.0,30.04,South,186,0.0,0.0,88,0.00,,,0.00,weatherlink.com 1.10,2013-08-06 01:09:00,
2013-08-05 21:24:00,71.5,68.0,30.05,South,186,0.0,0.0,89,0.00,,,0.00,weatherlink.com 1.10,2013-08-06 01:24:00,
2013-08-05 21:39:00,71.0,68.0,30.05,South,186,0.0,0.0,89,0.00,,,0.00,weatherlink.com 1.10,2013-08-06 01:39:00,
2013-08-05 21:54:00,70.5,68.0,30.06,South,186,0.0,0.0,91,0.00,,,0.00,weatherlink.com 1.10,2013-08-06 01:54:00,
2013-08-05 22:09:00,69.9,68.0,30.06,South,186,0.0,0.0,93,0.00,,,0.00,weatherlink.com 1.10,2013-08-06 02:09:00,
2013-08-05 22:39:00,69.5,68.0,30.06,South,186,0.0,0.0,94,0.00,,,0.00,weatherlink.com 1.10,2013-08-06 02:39:00,
2013-08-05 22:54:00,69.4,68.0,30.06,South,186,0.0,0.0,94,0.00,,,0.00,weatherlink.com 1.10,2013-08-06 02:54:00,
2013-08-05 23:24:00,69.0,68.0,30.06,South,186,0.0,0.0,95,0.00,,,0.00,weatherlink.com 1.10,2013-08-06 03:24:00,
2013-08-05 23:39:00,68.8,67.0,30.05,South,186,0.0,0.0,95,0.00,,,0.00,weatherlink.com 1.10,2013-08-06 03:39:00,
2013-08-05 23:54:00,68.6,67.0,30.05,South,186,0.0,0.0,95,0.00,,,0.00,weatherlink.com 1.10,2013-08-06 03:54:00,